Regional Weather Roundup
Issued by NWS Newport/Morehead, NC

Current Version | Previous Version | Graphics & Text | Print | Product List | Glossary Off
Versions: 1 2 3 4 5 6 7 8 9 10 11 12 13 14 15 16 17 18 19 20 21 22 23 24 25 26 27 28 29 30 31 32 33 34 35 36 37 38 39 40 41 42 43 44 45 46 47 48 49 50

000
ASUS42 KMHX 280213
RWRMHX
WEATHER ROUNDUP FOR EASTERN NORTH CAROLINA
NATIONAL WEATHER SERVICE NEWPORT/MOREHEAD CITY NC
1000 PM EDT SAT MAY 27 2017

NOTE: "FAIR" INDICATES FEW OR NO CLOUDS BELOW 12,000 FEET
WITH NO SIGNIFICANT WEATHER AND/OR OBSTRUCTIONS TO VISIBILITY

NCZ015>017-031-032-045>047-102-103-280300-
NORTH COAST

CITY           SKY/WX    TMP DP  RH WIND       PRES   REMARKS
EDENTON        CLOUDY    80  72  76 CALM      29.89R
ELIZABETH CITY TSTM      78  71  79 SW7       29.89R
KITTY HAWK     CLOUDY    76  69  77 CALM      29.87R
MANTEO         CLOUDY    76  71  83 SW12      29.89R

$$

NCZ045>047-081-094-103-104-280300-
CENTRAL COAST

CITY           SKY/WX    TMP DP  RH WIND       PRES   REMARKS
FRISCO         CLOUDY    76  71  85 SW10      29.91R

$$

NCZ095-097-098-100-101-280300-
SOUTHERN COAST

CITY           SKY/WX    TMP DP  RH WIND       PRES   REMARKS
BEAUFORT       CLEAR     76  71  85 SW15      29.91R
CEDAR ISLAND   NOT AVBL
JACKSONVILLE   CLEAR     76  70  82 S5        29.89R
PINEY ISLAND   CLEAR    N/A N/A N/A SW10      29.90R
WILMINGTON     CLEAR     76  69  79 SW8       29.91R


$$

NCZ011>013-027>030-043-044-078>080-089-090>093-098-280300-
COASTAL PLAIN

CITY           SKY/WX    TMP DP  RH WIND       PRES   REMARKS
AHOSKIE        NOT AVBL
CLINTON        CLEAR     76  70  80 CALM      29.89R
ELIZABETHTOWN  CLEAR     78  66  65 SW3       29.90R
GOLDSBORO      CLEAR     77  71  83 CALM      29.86R
GREENVILLE     MOCLDY    77  68  73 CALM      29.90R
HAVELOCK       NOT AVBL
KENANSVILLE    CLEAR     73  68  83 CALM      29.89R
KINSTON        NOT AVBL
NEW BERN       CLEAR     74  71  91 S6        29.90R
RICHLANDS      CLEAR     75  70  84 S6        29.90R
ROCKY MOUNT    CLOUDY    74  70  87 CALM      29.87R
WASHINGTON     PTCLDY    76  71  82 S3        29.89R
WHITEVILLE     CLEAR     75  69  80 CALM      29.90S

$$

AMZ130-135-150-152-154-156-158-170-250-252-270-ANZ085-086-088-633-658-670-280300-
MARINE OBSERVATIONS

STATION/POSITION TIME  TEMP    WIND        PRES    WAVE   SWELL
                       AIR SEA DIR/SP/G            HT/PER HT/PER
                 (UTC) (F)     (DEG/KT/KT) (MB)    (FT/S) (FT/S)
CHESAPEAKE LIGHT NOT AVBL
64 E VA BEACH    0150   68 66  190/  8/  8 1011.4    2/ 8   2/ 8
DUCK             0142   79 64  200/  9/ 12 1011.0
2 E DUCK         0130      66                N/A     2/ 7
OREGON INLET     0142   76 76  200/ 15/ 17 1011.7
13E OREGON INLT  0148      68                N/A     3/ 7   2/ 7
HATTERAS CG      0142   75 75  210/ 10/ 13 1012.5
DIAMOND BUOY     0150   78 79  230/ 17/ 21 1012.3    3/ 8   2/ 8
CAPE LOOKOUT     0200   76     220/ 11/ 15 1012.5
BEAUFORT LAB     0142   76 73  240/  4/ 10 1012.0
30 SE NEW RVR IN 0108   77 77  240/ 17/ 21 1012.4
30 SE NEW RVR IN 0143      77                N/A     4/ 5
27 SE WRIGHTSVLE 0108   76 78  220/ 17/ 23 1012.1
5 SE WRIGHTSVLE  0108   76 75  220/ 12/ 17 1012.2
225 S CAPE HAT   0150   76 77  210/ 14/ 14 1015.3    3/ 8   2/ 8
41 SE CHARLESTON 0150   77 75  220/ 12/ 14 1013.9    3/ 5   2/ 8

$$



USA.gov is the U.S. government's official web portal to all federal, state and local government web resources and services.